| time (UTC) | temp F | wind direction | speed MPH | gust MPH | rain 1hr in | rain 24hr in | rain mn in | humidity % | barometer mb |
| 20260905150507 | 76 | 88 | 2.0 | 8.0 | 0.00 | 0.40 | 0.00 | 79 | 1016.6 |
| 20260905150022 | 76 | 82 | 1.0 | 8.0 | 0.00 | 0.40 | 0.00 | 80 | 1016.5 |
| 20260905145512 | 74 | 88 | 3.0 | 8.0 | 0.00 | 0.40 | 0.00 | 85 | 1016.4 |
| 20260905145007 | 73 | 66 | 1.0 | 10.0 | 0.00 | 0.40 | 0.00 | 86 | 1016.4 |
| 20260905144537 | 73 | 60 | 4.0 | 10.0 | 0.00 | 0.40 | 0.00 | 87 | 1016.4 |
| 20260905144012 | 72 | 133 | 2.0 | 9.0 | 0.00 | 0.40 | 0.00 | 87 | 1016.4 |
| 20260905143507 | 72 | 111 | 3.0 | 12.0 | 0.00 | 0.40 | 0.00 | 87 | 1016.3 |
| 20260905143022 | 72 | 71 | 7.0 | 12.0 | 0.00 | 0.40 | 0.00 | 87 | 1016.2 |
| 20260905142509 | 72 | 71 | 4.0 | 11.0 | 0.00 | 0.40 | 0.00 | 87 | 1016.0 |
| 20260905142012 | 73 | 50 | 7.0 | 11.0 | 0.00 | 0.40 | 0.00 | 87 | 1016.0 |
| 20260905141530 | 73 | 44 | 4.0 | 8.0 | 0.00 | 0.40 | 0.00 | 87 | 1015.9 |
| 20260905141014 | 73 | 52 | 3.0 | 8.0 | 0.00 | 0.42 | 0.00 | 87 | 1015.9 |
| 20260905140509 | 73 | 59 | 4.0 | 8.0 | 0.00 | 0.45 | 0.00 | 87 | 1015.9 |
| 20260905140022 | 73 | 352 | 2.0 | 12.0 | 0.00 | 0.45 | 0.00 | 87 | 1015.9 |
| 20260905135507 | 73 | 21 | 6.0 | 12.0 | 0.00 | 0.45 | 0.00 | 86 | 1015.8 |
| 20260905135011 | 73 | 84 | 3.0 | 6.0 | 0.00 | 0.45 | 0.00 | 86 | 1015.9 |
| 20260905134520 | 73 | 131 | 1.0 | 10.0 | 0.00 | 0.45 | 0.00 | 87 | 1015.9 |
| 20260905134011 | 73 | 93 | 3.0 | 10.0 | 0.00 | 0.45 | 0.00 | 88 | 1016.0 |
| 20260905133512 | 72 | 76 | 3.0 | 9.0 | 0.00 | 0.45 | 0.00 | 88 | 1016.0 |
| 20260905133029 | 72 | 53 | 2.0 | 7.0 | 0.00 | 0.45 | 0.00 | 88 | 1015.9 |
| 20260905132513 | 72 | 46 | 3.0 | 7.0 | 0.00 | 0.45 | 0.00 | 88 | 1016.1 |
| 20260905132012 | 72 | 360 | 4.0 | 8.0 | 0.00 | 0.45 | 0.00 | 88 | 1016.0 |
| 20260905131507 | 72 | 84 | 2.0 | 8.0 | 0.00 | 0.45 | 0.00 | 89 | 1016.2 |
| 20260905131005 | 72 | 65 | 3.0 | 6.0 | 0.00 | 0.45 | 0.00 | 89 | 1016.4 |
| 20260905130507 | 72 | 85 | 3.0 | 6.0 | 0.00 | 0.45 | 0.00 | 89 | 1016.3 |
| 20260905130007 | 72 | 20 | 1.0 | 6.0 | 0.00 | 0.45 | 0.00 | 90 | 1016.1 |
| 20260905125506 | 72 | 306 | 1.0 | 6.0 | 0.00 | 0.45 | 0.00 | 90 | 1015.9 |
| 20260905125007 | 71 | 221 | 1.0 | 9.0 | 0.00 | 0.45 | 0.00 | 91 | 1015.9 |
| 20260905124507 | 71 | 57 | 3.0 | 9.0 | 0.00 | 0.45 | 0.00 | 91 | 1015.8 |
| 20260905124008 | 71 | 107 | 3.0 | 9.0 | 0.00 | 0.45 | 0.00 | 91 | 1015.8 |
| 20260905123506 | 71 | 146 | 4.0 | 8.0 | 0.00 | 0.45 | 0.00 | 91 | 1015.8 |
| 20260905123007 | 71 | 24 | 3.0 | 7.0 | 0.00 | 0.45 | 0.00 | 92 | 1015.8 |
| 20260905122508 | 71 | 32 | 2.0 | 8.0 | 0.00 | 0.45 | 0.00 | 92 | 1015.7 |
| 20260905122005 | 70 | 99 | 3.0 | 8.0 | 0.00 | 0.45 | 0.00 | 92 | 1015.7 |
| 20260905121508 | 70 | 34 | 1.0 | 7.0 | 0.00 | 0.45 | 0.00 | 93 | 1015.7 |
| 20260905121009 | 70 | 94 | 2.0 | 8.0 | 0.00 | 0.45 | 0.00 | 93 | 1015.5 |
| 20260905120506 | 70 | 69 | 4.0 | 10.0 | 0.00 | 0.45 | 0.00 | 93 | 1015.5 |
| 20260905120010 | 70 | 67 | 4.0 | 10.0 | 0.00 | 0.45 | 0.00 | 93 | 1015.3 |
| 20260905115509 | 70 | 59 | 4.0 | 10.0 | 0.00 | 0.45 | 0.00 | 93 | 1015.4 |
| 20260905115001 | 70 | 65 | 4.0 | 10.0 | 0.00 | 0.45 | 0.00 | 93 | 1015.4 |
| 20260905114512 | 70 | 40 | 4.0 | 8.0 | 0.00 | 0.45 | 0.00 | 93 | 1015.2 |
| 20260905114007 | 70 | 60 | 4.0 | 8.0 | 0.00 | 0.45 | 0.00 | 93 | 1015.2 |
| 20260905113502 | 70 | 71 | 3.0 | 7.0 | 0.00 | 0.45 | 0.00 | 93 | 1015.2 |
| 20260905113015 | 70 | 73 | 3.0 | 8.0 | 0.00 | 0.45 | 0.00 | 93 | 1015.1 |
| 20260905112507 | 69 | 78 | 5.0 | 8.0 | 0.00 | 0.45 | 0.00 | 93 | 1015.0 |
| 20260905112003 | 69 | 76 | 4.0 | 9.0 | 0.00 | 0.45 | 0.00 | 93 | 1015.0 |
| 20260905111516 | 69 | 41 | 4.0 | 12.0 | 0.00 | 0.45 | 0.00 | 93 | 1015.0 |
| 20260905111007 | 69 | 65 | 4.0 | 12.0 | 0.00 | 0.45 | 0.00 | 93 | 1014.9 |
| 20260905110504 | 69 | 40 | 5.0 | 10.0 | 0.00 | 0.45 | 0.00 | 93 | 1014.8 |
| 20260905110018 | 69 | 42 | 3.0 | 10.0 | 0.00 | 0.45 | 0.00 | 93 | 1014.8 |
| 20260905105509 | 69 | 12 | 4.0 | 9.0 | 0.00 | 0.45 | 0.00 | 93 | 1014.8 |
| 20260905105006 | 69 | 100 | 4.0 | 11.0 | 0.00 | 0.45 | 0.00 | 93 | 1014.7 |
| 20260905104515 | 69 | 71 | 7.0 | 11.0 | 0.00 | 0.45 | 0.00 | 93 | 1014.6 |
| 20260905104009 | 69 | 59 | 5.0 | 9.0 | 0.00 | 0.45 | 0.00 | 93 | 1014.6 |
| 20260905103506 | 69 | 88 | 3.0 | 8.0 | 0.00 | 0.45 | 0.00 | 93 | 1014.6 |
| 20260905103028 | 69 | 70 | 5.0 | 8.0 | 0.00 | 0.45 | 0.00 | 93 | 1014.5 |
| 20260905102507 | 69 | 36 | 3.0 | 7.0 | 0.00 | 0.45 | 0.00 | 92 | 1014.4 |
| 20260905102003 | 69 | 67 | 3.0 | 6.0 | 0.00 | 0.45 | 0.00 | 92 | 1014.4 |
| 20260905101522 | 69 | 32 | 3.0 | 8.0 | 0.00 | 0.45 | 0.00 | 92 | 1014.3 |
| 20260905101010 | 69 | 78 | 3.0 | 8.0 | 0.00 | 0.45 | 0.00 | 92 | 1014.3 |
| 20260905100506 | 70 | 92 | 4.0 | 8.0 | 0.00 | 0.45 | 0.00 | 92 | 1014.2 |
| 20260905100023 | 70 | 65 | 3.0 | 6.0 | 0.00 | 0.45 | 0.00 | 92 | 1014.3 |
| 20260905095511 | 70 | 60 | 3.0 | 5.0 | 0.00 | 0.45 | 0.00 | 92 | 1014.2 |
| 20260905095008 | 70 | 74 | 3.0 | 5.0 | 0.00 | 0.45 | 0.00 | 92 | 1014.2 |
| 20260905094520 | 70 | 65 | 2.0 | 5.0 | 0.00 | 0.45 | 0.00 | 92 | 1014.1 |
| 20260905094010 | 70 | 67 | 3.0 | 5.0 | 0.00 | 0.45 | 0.00 | 92 | 1014.1 |
| 20260905093511 | 70 | 55 | 3.0 | 4.0 | 0.00 | 0.45 | 0.00 | 92 | 1014.1 |
| 20260905093026 | 70 | 55 | 2.0 | 4.0 | 0.00 | 0.45 | 0.00 | 92 | 1014.1 |
| 20260905092514 | 70 | 50 | 1.0 | 3.0 | 0.00 | 0.45 | 0.00 | 92 | 1014.1 |
| 20260905092007 | 70 | 56 | 2.0 | 3.0 | 0.00 | 0.45 | 0.00 | 92 | 1014.1 |
| 20260905091525 | 70 | 59 | 2.0 | 3.0 | 0.00 | 0.45 | 0.00 | 92 | 1014.0 |
| 20260905091004 | 70 | 71 | 1.0 | 3.0 | 0.00 | 0.45 | 0.00 | 92 | 1014.0 |
| 20260905090507 | 70 | 67 | 2.0 | 3.0 | 0.00 | 0.45 | 0.00 | 92 | 1014.1 |
| 20260905090023 | 70 | 63 | 1.0 | 3.0 | 0.00 | 0.45 | 0.00 | 92 | 1014.1 |
| 20260905085504 | 70 | 63 | 1.0 | 3.0 | 0.00 | 0.45 | 0.00 | 92 | 1014.2 |
| 20260905085007 | 70 | 76 | 0.0 | 2.0 | 0.00 | 0.45 | 0.00 | 92 | 1014.3 |
| 20260905084526 | 70 | 134 | 0.0 | 2.0 | 0.00 | 0.45 | 0.00 | 92 | 1014.3 |
| 20260905084005 | 70 | 27 | 0.0 | 2.0 | 0.00 | 0.46 | 0.00 | 92 | 1014.3 |
| 20260905083513 | 70 | 171 | 0.0 | 2.0 | 0.00 | 0.46 | 0.00 | 92 | 1014.2 |
| 20260905083022 | 70 | 126 | 0.0 | 2.0 | 0.00 | 0.46 | 0.00 | 92 | 1014.2 |
| 20260905082504 | 70 | 77 | 0.0 | 2.0 | 0.00 | 0.46 | 0.00 | 92 | 1014.1 |
| 20260905082013 | 70 | 80 | 0.0 | 2.0 | 0.00 | 0.46 | 0.00 | 92 | 1014.1 |
| 20260905081525 | 70 | 68 | 0.0 | 2.0 | 0.00 | 0.46 | 0.00 | 92 | 1014.0 |
| 20260905081008 | 70 | 84 | 0.0 | 2.0 | 0.00 | 0.46 | 0.00 | 92 | 1013.9 |
| 20260905080512 | 71 | 117 | 0.0 | 2.0 | 0.00 | 0.46 | 0.00 | 92 | 1013.9 |
| 20260905080028 | 71 | 81 | 0.0 | 4.0 | 0.00 | 0.46 | 0.00 | 92 | 1013.9 |
| 20260905075507 | 71 | 97 | 0.0 | 4.0 | 0.00 | 0.47 | 0.00 | 92 | 1013.8 |
| 20260905075013 | 71 | 60 | 2.0 | 4.0 | 0.00 | 0.47 | 0.00 | 92 | 1013.9 |
| 20260905074537 | 71 | 82 | 1.0 | 2.0 | 0.00 | 0.47 | 0.00 | 91 | 1013.8 |
| 20260905074010 | 71 | 62 | 1.0 | 2.0 | 0.00 | 0.47 | 0.00 | 91 | 1013.9 |
| 20260905073512 | 71 | 82 | 0.0 | 2.0 | 0.00 | 0.47 | 0.00 | 91 | 1014.1 |
| 20260905073037 | 71 | 71 | 0.0 | 2.0 | 0.00 | 0.47 | 0.00 | 91 | 1014.1 |
| 20260905072509 | 71 | 88 | 0.0 | 2.0 | 0.00 | 0.47 | 0.00 | 91 | 1014.1 |
| 20260905072011 | 71 | 32 | 0.0 | 2.0 | 0.00 | 0.47 | 0.00 | 91 | 1014.0 |
| 20260905071527 | 71 | 345 | 0.0 | 2.0 | 0.00 | 0.47 | 0.00 | 91 | 1013.9 |
| 20260905071009 | 71 | 348 | 0.0 | 2.0 | 0.00 | 0.47 | 0.00 | 91 | 1013.9 |
| 20260905070503 | 71 | 54 | 0.0 | 2.0 | 0.00 | 0.47 | 0.00 | 90 | 1013.9 |
| 20260905070013 | 71 | 56 | 0.0 | 2.0 | 0.00 | 0.47 | 0.00 | 90 | 1013.8 |
| 20260905065513 | 71 | 18 | 0.0 | 2.0 | 0.00 | 0.47 | 0.00 | 90 | 1013.8 |
| 20260905065002 | 72 | 19 | 0.0 | 2.0 | 0.00 | 0.47 | 0.00 | 90 | 1013.9 |
| 20260905064516 | 72 | 69 | 0.0 | 2.0 | 0.00 | 0.47 | 0.00 | 90 | 1014.1 |
| 20260905064013 | 72 | 52 | 0.0 | 3.0 | 0.00 | 0.47 | 0.00 | 90 | 1014.0 |
| 20260905063505 | 72 | 74 | 1.0 | 3.0 | 0.00 | 0.47 | 0.00 | 90 | 1013.9 |
| 20260905063014 | 72 | 59 | 1.0 | 3.0 | 0.00 | 0.47 | 0.00 | 90 | 1013.9 |
| 20260905062500 | 72 | 13 | 0.0 | 3.0 | 0.00 | 0.47 | 0.00 | 90 | 1014.1 |
| 20260905062003 | 72 | 121 | 1.0 | 3.0 | 0.00 | 0.47 | 0.00 | 89 | 1014.1 |
| 20260905061517 | 72 | 59 | 0.0 | 2.0 | 0.00 | 0.47 | 0.00 | 89 | 1014.1 |
| 20260905061001 | 72 | 140 | 0.0 | 3.0 | 0.00 | 0.47 | 0.00 | 89 | 1014.0 |
| 20260905060503 | 72 | 57 | 1.0 | 3.0 | 0.00 | 0.47 | 0.00 | 89 | 1014.0 |
| 20260905060017 | 72 | 76 | 1.0 | 2.0 | 0.00 | 0.47 | 0.00 | 89 | 1014.1 |
| 20260905055502 | 72 | 32 | 0.0 | 2.0 | 0.00 | 0.47 | 0.00 | 90 | 1014.0 |
| 20260905055004 | 72 | 32 | 0.0 | 2.0 | 0.00 | 0.47 | 0.00 | 90 | 1014.1 |
| 20260905054520 | 72 | 19 | 0.0 | 2.0 | 0.00 | 0.47 | 0.00 | 90 | 1014.0 |
| 20260905054000 | 72 | 300 | 0.0 | 3.0 | 0.00 | 0.47 | 0.00 | 90 | 1014.0 |
| 20260905053507 | 72 | 246 | 1.0 | 3.0 | 0.00 | 0.47 | 0.00 | 90 | 1014.0 |
| 20260905053025 | 72 | 254 | 1.0 | 3.0 | 0.00 | 0.47 | 0.00 | 90 | 1013.8 |
| 20260905052503 | 72 | 250 | 0.0 | 2.0 | 0.00 | 0.47 | 0.00 | 90 | 1013.9 |
| 20260905052003 | 72 | 240 | 1.0 | 2.0 | 0.00 | 0.47 | 0.00 | 89 | 1013.9 |
| 20260905051523 | 72 | 236 | 0.0 | 2.0 | 0.00 | 0.47 | 0.00 | 89 | 1014.1 |
| 20260905051003 | 72 | 244 | 0.0 | 2.0 | 0.00 | 0.47 | 0.00 | 89 | 1014.2 |
| 20260905050507 | 72 | 243 | 0.0 | 2.0 | 0.00 | 0.47 | 0.00 | 89 | 1014.3 |
| 20260905050031 | 73 | 241 | 0.0 | 2.0 | 0.00 | 0.47 | 0.00 | 88 | 1014.3 |
| 20260905045504 | 73 | 235 | 0.0 | 2.0 | 0.00 | 0.47 | 0.47 | 88 | 1014.3 |
| 20260905045004 | 73 | 130 | 0.0 | 2.0 | 0.00 | 0.47 | 0.47 | 88 | 1014.2 |
| 20260905044527 | 73 | 132 | 0.0 | 2.0 | 0.00 | 0.47 | 0.47 | 88 | 1014.3 |
| 20260905044002 | 73 | 77 | 0.0 | 1.0 | 0.00 | 0.47 | 0.47 | 88 | 1014.3 |
| 20260905043505 | 73 | 76 | 0.0 | 2.0 | 0.00 | 0.47 | 0.47 | 88 | 1014.4 |
| 20260905043030 | 73 | 74 | 0.0 | 3.0 | 0.00 | 0.47 | 0.47 | 88 | 1014.5 |
| 20260905042502 | 73 | 63 | 1.0 | 3.0 | 0.00 | 0.47 | 0.47 | 88 | 1014.5 |
| 20260905042008 | 73 | 44 | 2.0 | 5.0 | 0.00 | 0.47 | 0.47 | 88 | 1014.4 |
| 20260905041531 | 73 | 57 | 2.0 | 5.0 | 0.00 | 0.47 | 0.47 | 87 | 1014.4 |
| 20260905041006 | 73 | 57 | 2.0 | 3.0 | 0.00 | 0.47 | 0.47 | 87 | 1014.5 |
| 20260905040509 | 73 | 77 | 2.0 | 3.0 | 0.00 | 0.47 | 0.47 | 87 | 1014.4 |
| 20260905040030 | 73 | 65 | 2.0 | 3.0 | 0.00 | 0.47 | 0.47 | 87 | 1014.3 |
| 20260905035503 | 73 | 38 | 2.0 | 3.0 | 0.00 | 0.47 | 0.47 | 87 | 1014.2 |
| 20260905035008 | 74 | 59 | 0.0 | 2.0 | 0.00 | 0.47 | 0.47 | 87 | 1014.2 |
| 20260905034535 | 74 | 5 | 0.0 | 2.0 | 0.00 | 0.47 | 0.47 | 87 | 1014.3 |
| 20260905034004 | 74 | 19 | 0.0 | 2.0 | 0.00 | 0.47 | 0.47 | 87 | 1014.1 |
| 20260905033510 | 74 | 107 | 0.0 | 2.0 | 0.00 | 0.47 | 0.47 | 87 | 1014.0 |
| 20260905033010 | 74 | 275 | 0.0 | 2.0 | 0.00 | 0.47 | 0.47 | 87 | 1014.1 |
| 20260905032508 | 74 | 204 | 0.0 | 2.0 | 0.00 | 0.47 | 0.47 | 87 | 1014.0 |
| 20260905032009 | 74 | 178 | 0.0 | 2.0 | 0.00 | 0.47 | 0.47 | 87 | 1014.2 |
| 20260905031506 | 74 | 112 | 0.0 | 2.0 | 0.00 | 0.47 | 0.47 | 86 | 1014.3 |
| 20260905031007 | 74 | 123 | 1.0 | 2.0 | 0.00 | 0.47 | 0.47 | 86 | 1014.4 |
| 20260905030510 | 74 | 128 | 0.0 | 3.0 | 0.00 | 0.47 | 0.47 | 86 | 1014.5 |
| 20260905030009 | 74 | 96 | 1.0 | 3.0 | 0.00 | 0.47 | 0.47 | 86 | 1014.4 |
| 20260905025510 | 74 | 152 | 1.0 | 3.0 | 0.00 | 0.47 | 0.47 | 86 | 1014.4 |
| 20260905025014 | 74 | 135 | 1.0 | 2.0 | 0.00 | 0.47 | 0.47 | 86 | 1014.6 |
| 20260905024508 | 74 | 102 | 0.0 | 4.0 | 0.00 | 0.47 | 0.47 | 85 | 1014.4 |
| 20260905024007 | 74 | 107 | 1.0 | 4.0 | 0.00 | 0.47 | 0.47 | 85 | 1014.3 |
| 20260905023515 | 74 | 90 | 2.0 | 4.0 | 0.00 | 0.47 | 0.47 | 85 | 1014.5 |
| 20260905023031 | 75 | 77 | 2.0 | 5.0 | 0.00 | 0.47 | 0.47 | 84 | 1014.3 |
| 20260905022507 | 75 | 55 | 2.0 | 6.0 | 0.00 | 0.47 | 0.47 | 84 | 1014.4 |
| 20260905022016 | 75 | 40 | 2.0 | 6.0 | 0.00 | 0.47 | 0.47 | 84 | 1014.3 |
| 20260905021516 | 75 | 63 | 2.0 | 5.0 | 0.00 | 0.47 | 0.47 | 83 | 1014.2 |
| 20260905021009 | 75 | 51 | 2.0 | 5.0 | 0.00 | 0.47 | 0.47 | 83 | 1014.3 |
| 20260905020515 | 75 | 90 | 3.0 | 7.0 | 0.00 | 0.47 | 0.47 | 83 | 1014.2 |
| 20260905020022 | 76 | 42 | 3.0 | 7.0 | 0.00 | 0.47 | 0.47 | 82 | 1014.4 |
| 20260905015511 | 76 | 61 | 3.0 | 7.0 | 0.00 | 0.47 | 0.47 | 82 | 1014.4 |
| 20260905015017 | 76 | 55 | 4.0 | 7.0 | 0.00 | 0.47 | 0.47 | 82 | 1014.4 |
| 20260905014513 | 76 | 65 | 3.0 | 7.0 | 0.00 | 0.47 | 0.47 | 82 | 1014.4 |
| 20260905014012 | 76 | 55 | 3.0 | 5.0 | 0.00 | 0.47 | 0.47 | 82 | 1014.3 |
| 20260905013515 | 76 | 61 | 3.0 | 5.0 | 0.00 | 0.47 | 0.47 | 82 | 1014.3 |
| 20260905013014 | 76 | 68 | 3.0 | 4.0 | 0.00 | 0.47 | 0.47 | 82 | 1014.3 |
| 20260905012513 | 76 | 45 | 3.0 | 7.0 | 0.00 | 0.47 | 0.47 | 82 | 1014.3 |
| 20260905012018 | 76 | 70 | 3.0 | 7.0 | 0.00 | 0.47 | 0.47 | 82 | 1014.3 |
| 20260905011513 | 76 | 61 | 3.0 | 6.0 | 0.00 | 0.47 | 0.47 | 82 | 1014.1 |
| 20260905011012 | 76 | 57 | 3.0 | 5.0 | 0.00 | 0.47 | 0.47 | 82 | 1014.0 |
| 20260905010521 | 76 | 105 | 2.0 | 8.0 | 0.00 | 0.47 | 0.47 | 82 | 1014.1 |
| 20260905010018 | 76 | 59 | 4.0 | 8.0 | 0.00 | 0.47 | 0.47 | 82 | 1014.0 |
| 20260905005511 | 76 | 90 | 4.0 | 8.0 | 0.00 | 0.47 | 0.47 | 81 | 1014.1 |
| 20260905005016 | 76 | 30 | 3.0 | 8.0 | 0.00 | 0.47 | 0.47 | 81 | 1013.8 |
| 20260905004521 | 76 | 55 | 3.0 | 10.0 | 0.00 | 0.47 | 0.47 | 81 | 1013.6 |
| 20260905004014 | 77 | 83 | 5.0 | 10.0 | 0.00 | 0.47 | 0.47 | 81 | 1013.5 |
| 20260905003522 | 77 | 75 | 5.0 | 10.0 | 0.00 | 0.47 | 0.47 | 80 | 1013.5 |
| 20260905003023 | 77 | 61 | 6.0 | 10.0 | 0.00 | 0.47 | 0.47 | 80 | 1013.4 |
| 20260905002515 | 77 | 40 | 4.0 | 9.0 | 0.00 | 0.47 | 0.47 | 80 | 1013.4 |
| 20260905002003 | 78 | 73 | 7.0 | 9.0 | 0.00 | 0.47 | 0.47 | 79 | 1013.2 |
| 20260905001523 | 78 | 88 | 3.0 | 6.0 | 0.00 | 0.47 | 0.47 | 80 | 1013.1 |
| 20260905001015 | 78 | 41 | 4.0 | 8.0 | 0.00 | 0.47 | 0.47 | 79 | 1013.2 |
| 20260905000504 | 78 | 78 | 4.0 | 9.0 | 0.00 | 0.47 | 0.47 | 79 | 1013.1 |
| 20260905000026 | 79 | 82 | 5.0 | 9.0 | 0.00 | 0.47 | 0.47 | 78 | 1013.3 |
| 20260904235520 | 79 | 57 | 3.0 | 6.0 | 0.00 | 0.47 | 0.47 | 78 | 1013.2 |
| 20260904235006 | 79 | 47 | 3.0 | 6.0 | 0.00 | 0.47 | 0.47 | 78 | 1013.2 |
| 20260904234532 | 80 | 91 | 2.0 | 6.0 | 0.00 | 0.47 | 0.47 | 78 | 1013.2 |
| 20260904234016 | 80 | 65 | 4.0 | 8.0 | 0.00 | 0.47 | 0.47 | 77 | 1013.3 |
| 20260904233506 | 81 | 98 | 4.0 | 9.0 | 0.00 | 0.47 | 0.47 | 76 | 1013.1 |
| 20260904233027 | 82 | 43 | 3.0 | 10.0 | 0.00 | 0.47 | 0.47 | 74 | 1012.9 |
| 20260904232517 | 85 | 76 | 3.0 | 10.0 | 0.00 | 0.47 | 0.47 | 73 | 1012.7 |
| 20260904232010 | 85 | 348 | 1.0 | 2.0 | 0.00 | 0.47 | 0.47 | 74 | 1012.6 |
| 20260904231529 | 85 | 330 | 0.0 | 2.0 | 0.00 | 0.47 | 0.47 | 74 | 1012.5 |
| 20260904231018 | 85 | 332 | 0.0 | 2.0 | 0.00 | 0.47 | 0.47 | 73 | 1012.6 |
| 20260904230513 | 85 | 331 | 0.0 | 2.0 | 0.00 | 0.47 | 0.47 | 73 | 1012.7 |
| 20260904230032 | 85 | 340 | 0.0 | 2.0 | 0.00 | 0.47 | 0.47 | 73 | 1012.8 |
| 20260904225504 | 85 | 343 | 0.0 | 2.0 | 0.00 | 0.47 | 0.47 | 72 | 1012.9 |
| 20260904225010 | 85 | 326 | 1.0 | 3.0 | 0.00 | 0.47 | 0.47 | 72 | 1012.8 |
| 20260904224531 | 86 | 350 | 2.0 | 3.0 | 0.00 | 0.47 | 0.47 | 72 | 1012.8 |
| 20260904224007 | 86 | 315 | 1.0 | 3.0 | 0.00 | 0.47 | 0.47 | 71 | 1012.7 |
| 20260904223510 | 86 | 240 | 1.0 | 4.0 | 0.00 | 0.47 | 0.47 | 71 | 1012.8 |
| 20260904223034 | 86 | 258 | 2.0 | 4.0 | 0.00 | 0.47 | 0.47 | 71 | 1012.9 |
| 20260904222505 | 86 | 244 | 2.0 | 7.0 | 0.00 | 0.47 | 0.47 | 71 | 1012.8 |
| 20260904222009 | 86 | 262 | 2.0 | 9.0 | 0.00 | 0.47 | 0.47 | 70 | 1012.8 |
| 20260904221531 | 87 | 267 | 4.0 | 9.0 | 0.00 | 0.47 | 0.47 | 69 | 1012.9 |
| 20260904221006 | 87 | 271 | 3.0 | 9.0 | 0.00 | 0.47 | 0.47 | 68 | 1012.8 |
| 20260904220514 | 88 | 279 | 3.0 | 10.0 | 0.00 | 0.47 | 0.47 | 67 | 1012.8 |
| 20260904215508 | 88 | 279 | 2.0 | 10.0 | 0.00 | 0.47 | 0.47 | 67 | 1012.8 |
| 20260904215012 | 88 | 246 | 2.0 | 8.0 | 0.00 | 0.47 | 0.47 | 68 | 1012.8 |
| 20260904214507 | 88 | 260 | 2.0 | 10.0 | 0.00 | 0.47 | 0.47 | 67 | 1012.9 |
| 20260904214019 | 87 | 190 | 4.0 | 11.0 | 0.00 | 0.47 | 0.47 | 68 | 1012.9 |
| 20260904213517 | 87 | 262 | 3.0 | 14.0 | 0.00 | 0.47 | 0.47 | 68 | 1012.9 |
| 20260904213011 | 88 | 254 | 5.0 | 14.0 | 0.00 | 0.47 | 0.47 | 65 | 1012.9 |
| 20260904212522 | 89 | 248 | 3.0 | 10.0 | 0.00 | 0.47 | 0.47 | 65 | 1012.7 |
| 20260904212016 | 89 | 260 | 2.0 | 10.0 | 0.00 | 0.47 | 0.47 | 66 | 1012.7 |
| 20260904211510 | 88 | 240 | 4.0 | 10.0 | 0.00 | 0.47 | 0.47 | 66 | 1012.4 |
| 20260904211008 | 88 | 360 | 3.0 | 11.0 | 0.00 | 0.47 | 0.47 | 66 | 1012.4 |
| 20260904210516 | 88 | 182 | 5.0 | 14.0 | 0.00 | 0.47 | 0.47 | 65 | 1012.6 |
| 20260904210010 | 88 | 243 | 7.0 | 14.0 | 0.00 | 0.47 | 0.47 | 66 | 1012.3 |
| 20260904205512 | 88 | 145 | 4.0 | 16.0 | 0.00 | 0.47 | 0.47 | 65 | 1012.3 |
| 20260904205022 | 88 | 341 | 3.0 | 16.0 | 0.00 | 0.47 | 0.47 | 66 | 1012.3 |
| 20260904204511 | 87 | 223 | 4.0 | 11.0 | 0.00 | 0.47 | 0.47 | 68 | 1012.3 |
| 20260904204015 | 87 | 258 | 4.0 | 12.0 | 0.00 | 0.47 | 0.47 | 68 | 1012.3 |
| 20260904203519 | 87 | 248 | 5.0 | 12.0 | 0.00 | 0.47 | 0.47 | 67 | 1012.3 |
| 20260904203017 | 87 | 17 | 1.0 | 11.0 | 0.00 | 0.47 | 0.47 | 68 | 1012.4 |
| 20260904202513 | 87 | 200 | 2.0 | 17.0 | 0.00 | 0.47 | 0.47 | 68 | 1012.4 |
| 20260904202014 | 86 | 225 | 6.0 | 17.0 | 0.00 | 0.47 | 0.47 | 68 | 1012.4 |
| 20260904201515 | 86 | 250 | 5.0 | 12.0 | 0.00 | 0.47 | 0.47 | 69 | 1012.4 |
| 20260904201016 | 85 | 281 | 6.0 | 12.0 | 0.00 | 0.47 | 0.47 | 71 | 1012.3 |
| 20260904200515 | 84 | 228 | 5.0 | 11.0 | 0.00 | 0.47 | 0.47 | 71 | 1012.5 |
| 20260904200020 | 84 | 213 | 4.0 | 11.0 | 0.00 | 0.47 | 0.47 | 70 | 1012.6 |
| 20260904195517 | 84 | 249 | 4.0 | 11.0 | 0.00 | 0.47 | 0.47 | 70 | 1012.8 |
| 20260904195019 | 85 | 251 | 4.0 | 14.0 | 0.00 | 0.47 | 0.47 | 69 | 1012.8 |
| 20260904194541 | 86 | 27 | 3.0 | 14.0 | 0.00 | 0.47 | 0.47 | 68 | 1012.7 |
| 20260904194014 | 86 | 194 | 3.0 | 11.0 | 0.00 | 0.47 | 0.47 | 69 | 1012.8 |
| 20260904193517 | 85 | 187 | 6.0 | 14.0 | 0.00 | 0.47 | 0.47 | 69 | 1013.1 |
| 20260904193021 | 84 | 264 | 5.0 | 13.0 | 0.00 | 0.47 | 0.47 | 72 | 1013.3 |
| 20260904192516 | 82 | 201 | 3.0 | 12.0 | 0.00 | 0.47 | 0.47 | 74 | 1013.3 |
| 20260904192017 | 82 | 261 | 6.0 | 12.0 | 0.00 | 0.47 | 0.47 | 74 | 1013.4 |
| 20260904191536 | 82 | 184 | 4.0 | 15.0 | 0.00 | 0.47 | 0.47 | 74 | 1013.5 |
| 20260904191016 | 81 | 208 | 6.0 | 12.0 | 0.00 | 0.47 | 0.47 | 74 | 1013.4 |
| 20260904190516 | 81 | 265 | 4.0 | 11.0 | 0.00 | 0.47 | 0.47 | 75 | 1013.4 |
| 20260904190024 | 80 | 193 | 3.0 | 12.0 | 0.00 | 0.47 | 0.47 | 76 | 1013.4 |
| 20260904185517 | 80 | 192 | 4.0 | 12.0 | 0.00 | 0.47 | 0.47 | 76 | 1013.6 |
| 20260904185004 | 81 | 278 | 3.0 | 8.0 | 0.00 | 0.47 | 0.47 | 75 | 1013.6 |
| 20260904184526 | 81 | 134 | 2.0 | 8.0 | 0.00 | 0.47 | 0.47 | 74 | 1013.6 |
| 20260904184015 | 82 | 135 | 3.0 | 11.0 | 0.00 | 0.47 | 0.47 | 73 | 1013.8 |
| 20260904183508 | 81 | 128 | 2.0 | 11.0 | 0.00 | 0.47 | 0.47 | 76 | 1013.8 |
| 20260904183027 | 80 | 242 | 4.0 | 11.0 | 0.00 | 0.47 | 0.47 | 76 | 1013.8 |
| 20260904182520 | 81 | 250 | 3.0 | 9.0 | 0.00 | 0.47 | 0.47 | 76 | 1013.7 |
| 20260904182012 | 78 | 196 | 4.0 | 10.0 | 0.00 | 0.47 | 0.47 | 79 | 1013.9 |
| 20260904181528 | 77 | 164 | 3.0 | 12.0 | 0.00 | 0.47 | 0.47 | 82 | 1014.2 |
| 20260904181017 | 76 | 212 | 2.0 | 14.0 | 0.00 | 0.47 | 0.47 | 84 | 1014.1 |
| 20260904180508 | 75 | 112 | 6.0 | 14.0 | 0.00 | 0.48 | 0.47 | 84 | 1014.0 |
| 20260904180029 | 75 | 213 | 4.0 | 12.0 | 0.00 | 0.48 | 0.47 | 85 | 1014.1 |
| 20260904175516 | 74 | 259 | 6.0 | 12.0 | 0.00 | 0.48 | 0.47 | 85 | 1014.1 |
| 20260904175010 | 74 | 210 | 6.0 | 12.0 | 0.00 | 0.48 | 0.47 | 86 | 1014.2 |
| 20260904174556 | 73 | 135 | 5.0 | 14.0 | 0.00 | 0.48 | 0.47 | 86 | 1014.1 |
| 20260904174017 | 73 | 173 | 5.0 | 14.0 | 0.00 | 0.48 | 0.47 | 87 | 1014.1 |
| 20260904173511 | 73 | 228 | 3.0 | 11.0 | 0.00 | 0.48 | 0.47 | 87 | 1014.2 |
| 20260904173029 | 73 | 238 | 4.0 | 12.0 | 0.00 | 0.48 | 0.47 | 88 | 1014.1 |
| 20260904172521 | 72 | 250 | 4.0 | 12.0 | 0.00 | 0.48 | 0.47 | 88 | 1014.2 |
| 20260904172011 | 72 | 214 | 5.0 | 12.0 | 0.00 | 0.50 | 0.47 | 88 | 1014.4 |
| 20260904171530 | 72 | 136 | 4.0 | 12.0 | 0.00 | 0.50 | 0.47 | 89 | 1014.3 |
| 20260904171019 | 72 | 222 | 4.0 | 12.0 | 0.00 | 0.50 | 0.47 | 89 | 1014.4 |
| 20260904170514 | 72 | 223 | 4.0 | 14.0 | 0.00 | 0.50 | 0.47 | 89 | 1014.4 |
| 20260904170031 | 71 | 280 | 4.0 | 14.0 | 0.00 | 0.50 | 0.47 | 90 | 1014.3 |
| 20260904165519 | 71 | 218 | 5.0 | 10.0 | 0.00 | 0.50 | 0.47 | 90 | 1014.3 |
| 20260904165014 | 70 | 165 | 3.0 | 8.0 | 0.00 | 0.50 | 0.47 | 91 | 1014.5 |
| 20260904164507 | 70 | 225 | 2.0 | 8.0 | 0.00 | 0.50 | 0.47 | 90 | 1014.5 |
| 20260904164007 | 70 | 178 | 1.0 | 15.0 | 0.00 | 0.51 | 0.47 | 91 | 1014.7 |
| 20260904163513 | 70 | 225 | 2.0 | 15.0 | 0.00 | 0.51 | 0.47 | 91 | 1015.0 |
| 20260904163008 | 69 | 238 | 2.0 | 9.0 | 0.00 | 0.51 | 0.47 | 91 | 1015.4 |
| 20260904162508 | 69 | 174 | 3.0 | 9.0 | 0.03 | 0.51 | 0.47 | 91 | 1015.5 |
| 20260904162015 | 69 | 227 | 3.0 | 13.0 | 0.17 | 0.51 | 0.47 | 91 | 1015.1 |
| 20260904161509 | 69 | 263 | 3.0 | 13.0 | 0.35 | 0.51 | 0.47 | 92 | 1015.1 |
| 20260904161011 | 69 | 291 | 3.0 | 9.0 | 0.40 | 0.52 | 0.47 | 92 | 1015.3 |
| 20260904160506 | 69 | 200 | 1.0 | 7.0 | 0.40 | 0.52 | 0.47 | 92 | 1015.1 |
| 20260904160010 | 69 | 180 | 3.0 | 7.0 | 0.40 | 0.54 | 0.47 | 92 | 1015.2 |
| 20260904155507 | 69 | 243 | 2.0 | 11.0 | 0.40 | 0.56 | 0.47 | 91 | 1015.4 |
| 20260904155002 | 69 | 118 | 4.0 | 11.0 | 0.40 | 0.58 | 0.47 | 91 | 1015.6 |
| 20260904154512 | 69 | 95 | 3.0 | 10.0 | 0.40 | 0.60 | 0.47 | 91 | 1015.6 |
| 20260904154010 | 69 | 154 | 3.0 | 11.0 | 0.40 | 0.61 | 0.47 | 91 | 1015.8 |
| 20260904153504 | 69 | 150 | 5.0 | 11.0 | 0.40 | 0.62 | 0.47 | 91 | 1016.0 |
| 20260904153018 | 69 | 254 | 4.0 | 11.0 | 0.40 | 0.64 | 0.47 | 91 | 1016.2 |
| 20260904152519 | 70 | 236 | 2.0 | 12.0 | 0.37 | 0.63 | 0.44 | 90 | 1016.3 |
| 20260904152005 | 70 | 138 | 4.0 | 13.0 | 0.23 | 0.51 | 0.30 | 89 | 1016.5 |
| 20260904151515 | 70 | 82 | 4.0 | 13.0 | 0.05 | 0.33 | 0.12 | 89 | 1017.4 |
| 20260904151013 | 70 | 325 | 5.0 | 9.0 | 0.02 | 0.29 | 0.07 | 89 | 1017.6 |